Location: ???????
(55.4362°N, 38.1183°E)
Time: 22:02:43
(UTC+00:00)

Oscar 11 - Visible Passes

Search period start: 03 December 2021 00:00
Search period end: 13 December 2021 00:00
Orbit: 614 x 623 km, 97.6° (Epoch: 03 December)

Date Brightness Start Highest point End Pass type
(mag) Time Alt. Az. Time Alt. Az. Time Alt. Az.
03 Dec 10.4 01:27:03 10° ENE 01:28:28 11° E 01:29:52 10° ESE visible
03 Dec 7.3 03:01:03 10° NNE 03:05:26 71° ESE 03:09:45 10° S visible
03 Dec 8.3 04:37:52 10° N 04:41:08 21° WNW 04:44:23 10° WSW visible
03 Dec 7.6 14:02:26 10° S 14:06:46 65° WSW 14:11:08 10° NNW visible
03 Dec 10.6 15:43:02 10° W 15:43:47 10° W 15:44:32 10° WNW visible
04 Dec 10.0 01:42:53 10° NE 01:45:34 16° E 01:48:14 10° SE visible
04 Dec 7.0 03:17:54 10° NNE 03:22:18 84° WNW 03:26:38 10° SSW visible
04 Dec 8.3 14:19:29 10° S 14:23:41 46° W 14:27:55 10° NNW visible
05 Dec 9.5 01:59:15 10° NE 02:02:37 21° E 02:05:58 10° SE visible
05 Dec 7.0 03:34:49 10° N 03:39:07 60° WNW 03:43:24 10° SSW visible
05 Dec 9.0 14:36:42 10° SSW 14:40:38 33° W 14:44:38 10° NNW visible
06 Dec 9.0 02:15:49 10° NNE 02:19:38 29° E 02:23:26 10° SSE visible
06 Dec 7.3 03:51:46 10° N 03:55:55 44° WNW 04:00:02 10° SW visible
06 Dec 9.6 14:54:04 10° SSW 14:57:38 24° W 15:01:14 10° NW visible
07 Dec 8.4 02:32:29 10° NNE 02:36:37 40° E 02:40:42 10° SSE visible
07 Dec 7.7 04:08:47 10° N 04:12:41 32° WNW 04:16:32 10° SW visible
07 Dec 10.0 15:11:41 10° SW 15:14:41 18° W 15:17:41 10° NW visible
08 Dec 7.7 02:49:14 10° NNE 02:53:33 56° E 02:57:48 10° S visible
08 Dec 8.1 04:25:51 10° N 04:29:24 25° WNW 04:32:54 10° WSW visible
08 Dec 7.3 13:50:32 10° SSE 13:54:54 81° WSW 13:59:18 10° NNW visible
08 Dec 10.3 15:29:42 10° WSW 15:31:46 13° W 15:33:49 10° NW visible
09 Dec 10.2 01:31:37 10° ENE 01:33:33 13° E 01:35:30 10° ESE visible
09 Dec 7.1 03:06:03 10° NNE 03:10:27 79° ESE 03:14:46 10° SSW visible
09 Dec 8.4 04:42:59 10° N 04:46:04 19° NW 04:49:08 10° W visible
09 Dec 7.8 14:07:30 10° S 14:11:47 57° W 14:16:07 10° NNW visible
10 Dec 9.8 01:47:41 10° NE 01:50:38 18° E 01:53:34 10° SE visible
10 Dec 6.9 03:22:55 10° NNE 03:27:17 75° WNW 03:31:36 10° SSW visible
10 Dec 8.5 14:24:35 10° SSW 14:28:43 41° W 14:32:52 10° NNW visible
11 Dec 9.4 02:04:08 10° NE 02:07:40 24° E 02:11:11 10° SE visible
11 Dec 7.1 03:39:51 10° N 03:44:06 54° WNW 03:48:19 10° SW visible
11 Dec 9.2 14:41:51 10° SSW 14:45:41 30° W 14:49:33 10° NNW visible
12 Dec 8.8 02:20:44 10° NNE 02:24:40 32° E 02:28:35 10° SSE visible
12 Dec 7.5 03:56:49 10° N 04:00:53 39° WNW 04:04:54 10° SW visible
12 Dec 9.7 14:59:17 10° SW 15:02:41 22° W 15:06:07 10° NW visible
